SCP
0 0 0 0 0 0 0 0 0 0 0 0 0 0 0 0 0 0 0 0 0 0 0 -0 -0 0 0 0 0 0 0 0 0 0 0 0 0 0 0 0 0 0 0
0 0 0 0 0 0 0 0 0 0 0 0 0 0 0 0 0 0 0 0 0 0 0 0 0 0 0 0 0 0 0 0 0 0 0 0 0 0 0 0 0 0 0
0 0 0 0 0 0 0 0 0 0 0 0 0 0 0 0 0 0 0 0 0 0 0 0 0 0 0 0 0 0 0 0 0 0 0 0 0 0 0 0 0 0 0
0 0 0 0 0 0 0 0 0 0 0 0 0 0 0 0 0 0 0 0 0 0 0 0 0 0 0 0 0 0 0 0 0 0 0 0 0 0 0 0 0 0 0
0 0 0 0 0 0 0 0 0 0 0 0 0 0 0 0 0 0 0 0 0 0 0 0 0 0 0 0 0 0 0 0 0 0 0 0 0 0 0 0 0 0 0
0 0 0 0 0 0 0 0 0 0 0 0 0 0 0 0 0 0 0 0 0 0 0 0 0 0 0 0 0 0 0 0 0 0 0 0 0 0 0 0 0 0 0
0 0 0 0 0 0 0 0 0 0 0 0 0 0 0 0 0 0 0 0 0 0 0 0 0 0 0 0 0 0 0 0 0 0 0 0 0 0 0 0 0 0 0
0 0 0 0 0 0 0 0 0 0 0 0 0 0 0 0 0 0 0 0 0 0 0 0 0 0 0 0 0 0 0 0 0 0 0 0 0 0 0 0 0 0 0
0 0 0 0 0 0 0 0 0 0 0 0 0 0 0 0 0 0 0 0 0 0 0 0 0 0 0 0 0 0 0 0 0 0 0 0 0 0 0 0 0 0 0
0 0 0 0 0 0 0 0 0 0 0 0 0 0 0 0 0 0 0 0 0 0 0 0 0 0 0 0 0 0 0 0 0 0 0 0 0 0 0 0 0 0 0
0 0 0 0 0 0 0 0 0 0 0 0 0 0 0 0 0 0 0 0 0 0 0 0 0 0 0 0 0 0 0 0 0 0 0 0 0 0 0 0 0 0 0
1 0 0 0 0 0 0 0 0 0 0 0 0 0 0 0 0 0 0 0 0 0 0 0 0 0 0 0 0 0 0 0 0 0 0 0 0 0 0 0 0 0 0
1 1 1 0 0 0 0 0 0 0 0 0 0 0 0 0 0 0 0 0 0 0 0 0 0 0 0 0 0 0 0 0 0 0 0 0 0 0 0 0 0 0 0
0 0 0 0 0 0 0 0 0 0 0 0 0 0 0 0 0 0 0 0 0 0 0 0 0 0 0 0 0 0 0 0 0 0 0 0 0 0 0 0 0 0 0
0 0 0 0 0 0 0 0 0 0 0 0 0 0 0 0 0 0 0 0 0 0 0 0 0 0 0 0 0 0 0 0 0 0 0 0 0 0 0 0 0 0 0
0 0 0 0 0 0 0 0 0 0 0 0 0 0 0 0 0 0 0 0 0 0 0 0 0 0 0 0 0 0 0 0 0 0 0 0 0 0 0 0 0 0 0
0 0 0 0 0 0 0 0 0 0 0 0 0 0 0 0 0 0 0 0 0 0 0 0 0 0 0 0 0 0 0 0 0 0 0 0 0 0 0 0 0 0 0
0 0 0 0 0 0 0 0 0 0 0 0 0 0 0 0 0 0 0 0 0 0 0 0 0 0 0 0 0 0 0 0 0 0 0 0 0 0 0 0 0 0 0
0 0 0 0 0 0 0 0 0 0 0 0 0 0 0 0 0 0 0 0 0 0 0 0 0 0 0 0 0 0 0 0 0 0 0 0 0 0 0 0 0 0 0
0 0 0 0 0 0 0 0 0 0 0 0 0 0 0 0 0 0 0 0 0 0 0 0 0 0 0 0 0 0 0 0 0 0 0 0 0 0 0 0 0 0 0
0 0 0 0 0 0 0 0 0 0 0 0 0 0 0 0 0 0 0 0 0 0 0 0 0 0 0 0 0 0 0 0 0 0 0 0 0 0 0 0 0 0 0
0 0 0 0 0 0 0 0 0 0 0 0 0 0 0 0 0 0 0 0 0 0 0 0 0 0 0 0 0 0 0 0 0 0 0 0 0 0 0 0 0 0 0
0 0 0 0 0 0 0 0 0 0 0 0 0 0 0 0 0 0 0 0 0 0 0 0 0 0 0 0 0 0 0 0 0 0 0 0 0 0 0 0 0 0 0
0 0 0 0 0 0 0 0 0 0 0 0 0 0 0 0 0 0 0 0 0 0 0 0 0 0 0 0 0 0 0 0 0 0 0 0 0 0 0 0 0 0 0
0 0 0 0 0 0 0 0 0 0 0 0 0 0 0 0 0 0 0 0 0 0 0 0 0 0 0 0 0 0 0 0 0 0 0 0 0 0 0 0 0 0 0
0 0 0 0 0 0 0 0 0 0 0 0 0 0 0 0 0 0 0 0 0 0 0 0 0 0 0 0 0 0 0 0 0 0 0 0 0 0 0 0 0 0 0
Wind_Speed_500mb
28 24 23 22 20 18 19 19 20 22 21 21 22 22 21 21 20 19 18 18 17 19 20 20 20 20 18 18 18 17 17 17 18 18 18 18 18 21 23 26 27 27 29
26 25 26 26 25 23 22 21 22 22 23 23 22 21 21 22 22 20 19 19 19 20 21 22 23 22 22 20 20 20 20 20 19 20 20 19 22 24 24 25 28 31 32
31 28 28 28 26 26 25 25 24 26 27 26 26 25 26 25 25 25 24 23 23 23 23 26 27 28 27 25 24 24 24 23 20 20 19 19 19 20 21 23 25 29 32
36 36 34 32 30 30 30 30 30 31 31 28 26 26 25 29 29 27 26 24 23 24 25 24 27 29 29 28 26 25 24 20 18 17 17 16 16 16 20 23 25 27 30
40 41 39 36 34 35 36 35 35 32 32 31 27 28 31 34 36 34 31 26 27 26 25 25 22 24 24 24 24 20 17 17 19 19 18 16 16 18 20 22 23 27 30
42 42 42 40 39 38 38 36 37 34 36 30 31 34 37 39 37 34 30 27 28 29 25 23 22 19 19 19 18 18 19 21 22 20 20 21 22 24 25 26 27 28 30
44 44 44 44 43 43 42 39 38 39 37 32 39 39 41 32 30 21 22 26 33 32 24 22 26 24 22 21 21 22 22 23 23 22 22 24 26 28 29 29 30 29 31
49 48 46 46 46 46 47 42 46 42 42 35 42 36 30 31 20 18 22 27 29 19 22 26 31 30 26 25 26 27 28 27 27 27 26 25 24 26 28 29 28 31 35
55 54 51 49 50 48 47 47 46 46 44 42 38 34 12 13 7 15 20 21 22 23 31 33 33 34 32 35 36 34 33 32 31 27 24 23 23 24 24 28 35 40 40
60 57 57 56 54 51 48 50 48 46 42 49 45 44 49 44 25 18 23 25 27 31 34 37 38 41 38 43 37 36 33 30 27 23 23 21 22 29 35 42 42 43 43
61 59 59 61 59 57 53 51 51 52 50 48 50 53 47 48 52 51 43 35 35 39 43 44 45 50 47 53 37 38 33 29 26 28 29 28 33 36 38 38 38 39 40
63 63 63 66 64 64 62 58 54 53 52 55 53 57 63 60 57 57 54 54 47 44 45 52 51 47 46 36 37 36 32 28 24 28 32 31 33 34 34 34 35 36 35
70 72 70 69 71 72 68 65 63 60 58 58 57 59 61 66 63 59 56 50 48 51 47 52 48 53 49 32 44 37 32 29 37 35 33 33 32 31 30 30 30 30 30
67 71 73 74 74 73 76 71 71 67 64 64 63 62 64 68 67 65 62 55 50 50 52 49 51 48 55 45 42 42 37 46 37 34 34 32 30 28 27 26 26 26 27
58 62 61 70 71 72 75 76 78 73 72 71 69 67 70 73 69 69 67 63 61 56 50 53 60 55 56 53 48 45 43 37 37 33 30 27 26 25 24 23 24 25 28
56 58 62 58 68 65 68 75 78 77 73 72 73 71 76 75 74 73 75 69 66 65 55 48 56 58 53 56 49 48 43 38 35 31 29 27 26 25 25 25 25 26 27
57 60 64 65 69 66 66 67 67 69 75 77 73 69 70 72 68 66 71 66 63 63 60 62 63 59 55 54 46 46 40 36 33 31 29 28 27 27 25 25 25 25 25
34 39 45 48 53 56 59 64 65 66 66 66 61 66 69 71 65 63 67 66 62 63 63 73 64 51 51 50 47 43 40 36 33 30 30 29 28 26 24 24 23 23 23
30 34 40 45 49 52 56 57 58 58 58 58 60 60 62 64 66 66 65 61 64 64 65 70 68 59 54 53 50 46 41 37 34 33 32 31 29 26 24 24 22 22 23
32 35 38 42 46 48 51 53 55 57 59 61 58 60 60 63 66 64 60 66 65 63 68 65 62 59 58 54 51 47 43 40 37 35 32 32 31 27 25 23 22 22 22
41 44 46 48 50 53 56 58 59 60 58 60 62 63 64 66 66 68 67 69 67 68 67 66 66 65 60 60 58 50 46 42 41 37 34 33 30 28 25 24 21 22 21
55 57 57 58 61 61 62 63 61 63 64 66 66 67 70 71 70 71 71 69 68 65 68 68 67 67 67 61 55 52 48 47 42 38 35 33 31 28 23 22 23 22 21
60 64 67 68 70 69 68 69 69 69 70 70 71 72 73 73 71 71 71 70 70 71 70 66 68 69 65 58 52 50 49 45 47 36 32 32 29 27 23 24 25 21 16
60 62 64 65 70 73 71 70 68 71 74 74 75 76 76 74 74 71 70 70 70 70 70 70 66 63 57 55 51 46 41 42 45 38 34 32 29 26 22 24 22 17 17
67 69 70 72 73 74 69 71 72 71 73 75 76 78 78 77 73 73 72 71 71 71 70 70 68 64 59 54 47 44 42 43 48 38 35 33 28 22 19 22 20 16 18
65 69 73 74 75 78 77 76 72 72 73 75 75 77 78 78 72 73 71 70 71 70 70 71 71 68 59 54 51 45 45 49 45 36 35 34 25 16 11 19 17 15 14
Wind_Direction_500mb
219 223 225 236 244 248 249 247 252 259 267 271 277 282 284 286 287 289 288 292 293 291 293 296 297 296 296 297 296 296 295 295 295 298 296 288 292 290 293 295 300 302 305
226 228 228 233 241 246 252 255 256 262 268 272 276 281 283 284 288 290 290 294 292 290 292 292 289 287 286 286 287 288 288 286 287 288 285 290 286 288 293 289 292 296 300
225 233 233 235 239 244 247 250 248 248 257 266 272 276 279 281 284 287 288 286 284 285 285 283 280 277 275 275 276 277 278 278 280 282 283 285 284 289 296 297 294 296 299
229 233 236 240 245 246 249 248 251 254 257 260 267 271 275 284 290 286 283 283 285 286 282 277 275 275 271 265 267 270 273 274 273 277 281 280 282 292 296 300 300 300 302
235 237 241 244 245 245 247 249 250 251 248 262 270 274 280 284 288 289 285 284 287 284 279 274 272 273 265 257 257 261 264 269 272 271 272 277 286 294 293 292 298 301 304
238 238 241 243 245 241 242 247 255 253 263 268 272 272 277 280 284 281 273 270 272 272 268 263 263 263 259 253 248 257 267 269 272 276 281 283 287 291 291 290 291 294 300
242 239 240 242 245 240 247 253 262 257 252 256 267 273 281 284 290 290 282 265 265 265 251 250 255 255 259 257 261 266 264 264 270 276 282 290 295 300 299 297 299 300 300
247 247 245 244 244 241 243 250 252 256 255 249 259 272 281 293 276 288 281 268 268 238 259 246 250 260 260 266 271 269 268 268 274 277 279 281 284 286 290 294 299 300 301
249 249 252 249 246 245 245 247 246 253 255 251 252 245 255 252 281 238 257 268 246 256 251 253 255 257 262 270 268 266 263 267 269 269 276 287 292 290 291 296 299 301 302
252 252 250 251 249 249 247 245 245 255 253 251 252 246 247 251 264 251 256 261 235 239 242 261 256 256 273 269 259 263 261 258 256 257 277 285 290 291 296 296 297 299 302
255 252 249 247 248 248 253 253 242 245 253 253 250 253 253 253 250 253 255 242 244 249 248 248 253 263 270 265 255 269 259 242 249 268 284 284 281 286 291 293 297 300 303
260 257 252 248 247 246 247 249 249 243 247 248 254 247 252 256 253 247 245 251 250 250 250 263 265 254 265 243 274 250 244 252 272 276 285 285 287 289 290 294 297 298 300
257 261 260 255 254 248 248 248 248 247 246 245 249 254 250 254 255 255 257 259 252 255 255 257 262 255 257 245 255 244 247 261 274 284 285 284 285 286 287 290 291 294 297
256 261 262 262 258 256 252 247 248 250 249 248 246 251 252 251 251 248 250 254 250 252 256 257 257 250 247 232 258 247 254 266 275 274 276 277 279 282 285 288 292 298 301
252 257 260 263 263 253 246 244 247 252 252 252 252 248 249 249 248 248 252 249 250 247 252 254 252 250 246 239 235 250 259 263 264 268 270 275 280 283 287 292 295 299 304
248 251 252 252 265 264 255 249 252 258 258 256 253 248 246 251 251 255 255 250 251 254 253 258 248 246 243 243 238 252 254 258 266 268 270 274 278 282 286 292 295 299 303
258 255 253 255 256 257 259 258 258 256 252 254 254 252 251 252 253 256 251 254 254 249 248 251 243 237 236 233 237 246 246 252 257 258 263 268 273 278 283 288 291 294 298
262 260 256 254 254 254 255 256 258 259 260 260 256 256 250 256 250 255 257 256 257 245 243 245 237 227 233 235 235 236 242 244 247 254 261 264 267 270 275 278 283 290 294
286 279 274 271 269 266 264 264 264 264 263 260 263 252 254 255 256 255 259 253 253 246 251 245 240 231 236 231 232 232 234 240 246 251 255 259 262 265 268 273 281 288 291
293 287 281 277 275 272 270 267 266 265 262 263 256 255 257 260 259 258 256 258 254 253 247 242 237 240 234 232 228 229 231 236 241 247 249 250 255 263 266 270 277 282 284
296 292 287 282 277 274 272 269 267 268 264 260 259 258 259 257 259 257 256 256 255 249 241 236 233 232 231 230 228 229 230 233 237 241 242 243 250 256 254 263 271 278 277
292 292 292 290 287 282 277 274 272 271 269 266 266 266 264 262 260 259 259 256 251 246 241 237 234 235 234 229 228 226 227 227 234 239 242 242 248 253 250 261 268 269 266
295 293 291 289 287 286 286 284 280 275 271 270 269 267 266 264 263 260 257 253 248 244 239 238 239 236 234 231 229 226 227 231 245 242 237 241 245 245 244 255 260 256 261
296 293 291 288 284 283 283 282 282 280 277 274 271 269 267 264 261 258 254 250 244 240 237 237 235 235 234 234 230 230 231 236 241 239 241 243 241 236 247 258 258 230 279
301 301 298 294 290 285 280 281 281 280 278 275 273 270 268 265 260 256 251 246 242 238 236 235 232 232 230 229 228 229 233 240 242 239 240 244 243 235 243 251 226 258 282
305 303 302 302 300 296 291 282 279 280 279 276 273 270 267 264 259 255 250 246 242 238 235 236 234 232 230 226 224 227 238 239 239 241 239 240 238 244 226 229 228 260 276
Wind_Speed_850mb
28 24 23 22 20 18 19 19 20 22 21 21 22 22 21 21 20 19 18 18 17 19 20 20 20 20 18 18 18 17 17 17 18 18 18 18 18 21 23 26 27 27 29
26 25 26 26 25 23 22 21 22 22 23 23 22 21 21 22 22 20 19 19 19 20 21 22 23 22 22 20 20 20 20 20 19 20 20 19 22 24 24 25 28 31 32
31 28 28 28 26 26 25 25 24 26 27 26 26 25 26 25 25 25 24 23 23 23 23 26 27 28 27 25 24 24 24 23 20 20 19 19 19 20 21 23 25 29 32
36 36 34 32 30 30 30 30 30 31 31 28 26 26 25 29 29 27 26 24 23 24 25 24 27 29 29 28 26 25 24 20 18 17 17 16 16 16 20 23 25 27 30
40 41 39 36 34 35 36 35 35 32 32 31 27 28 31 34 36 34 31 26 27 26 25 25 22 24 24 24 24 20 17 17 19 19 18 16 16 18 20 22 23 27 30
42 42 42 40 39 38 38 36 37 34 36 30 31 34 37 39 37 34 30 27 28 29 25 23 22 19 19 19 18 18 19 21 22 20 20 21 22 24 25 26 27 28 30
44 44 44 44 43 43 42 39 38 39 37 32 39 39 41 32 30 21 22 26 33 32 24 22 26 24 22 21 21 22 22 23 23 22 22 24 26 28 29 29 30 29 31
49 48 46 46 46 46 47 42 46 42 42 35 42 36 30 31 20 18 22 27 29 19 22 26 31 30 26 25 26 27 28 27 27 27 26 25 24 26 28 29 28 31 35
55 54 51 49 50 48 47 47 46 46 44 42 38 34 12 13 7 15 20 21 22 23 31 33 33 34 32 35 36 34 33 32 31 27 24 23 23 24 24 28 35 40 40
60 57 57 56 54 51 48 50 48 46 42 49 45 44 49 44 25 18 23 25 27 31 34 37 38 41 38 43 37 36 33 30 27 23 23 21 22 29 35 42 42 43 43
61 59 59 61 59 57 53 51 51 52 50 48 50 53 47 48 52 51 43 35 35 39 43 44 45 50 47 53 37 38 33 29 26 28 29 28 33 36 38 38 38 39 40
63 63 63 66 64 64 62 58 54 53 52 55 53 57 63 60 57 57 54 54 47 44 45 52 51 47 46 36 37 36 32 28 24 28 32 31 33 34 34 34 35 36 35
70 72 70 69 71 72 68 65 63 60 58 58 57 59 61 66 63 59 56 50 48 51 47 52 48 53 49 32 44 37 32 29 37 35 33 33 32 31 30 30 30 30 30
67 71 73 74 74 73 76 71 71 67 64 64 63 62 64 68 67 65 62 55 50 50 52 49 51 48 55 45 42 42 37 46 37 34 34 32 30 28 27 26 26 26 27
58 62 61 70 71 72 75 76 78 73 72 71 69 67 70 73 69 69 67 63 61 56 50 53 60 55 56 53 48 45 43 37 37 33 30 27 26 25 24 23 24 25 28
56 58 62 58 68 65 68 75 78 77 73 72 73 71 76 75 74 73 75 69 66 65 55 48 56 58 53 56 49 48 43 38 35 31 29 27 26 25 25 25 25 26 27
57 60 64 65 69 66 66 67 67 69 75 77 73 69 70 72 68 66 71 66 63 63 60 62 63 59 55 54 46 46 40 36 33 31 29 28 27 27 25 25 25 25 25
34 39 45 48 53 56 59 64 65 66 66 66 61 66 69 71 65 63 67 66 62 63 63 73 64 51 51 50 47 43 40 36 33 30 30 29 28 26 24 24 23 23 23
30 34 40 45 49 52 56 57 58 58 58 58 60 60 62 64 66 66 65 61 64 64 65 70 68 59 54 53 50 46 41 37 34 33 32 31 29 26 24 24 22 22 23
32 35 38 42 46 48 51 53 55 57 59 61 58 60 60 63 66 64 60 66 65 63 68 65 62 59 58 54 51 47 43 40 37 35 32 32 31 27 25 23 22 22 22
41 44 46 48 50 53 56 58 59 60 58 60 62 63 64 66 66 68 67 69 67 68 67 66 66 65 60 60 58 50 46 42 41 37 34 33 30 28 25 24 21 22 21
55 57 57 58 61 61 62 63 61 63 64 66 66 67 70 71 70 71 71 69 68 65 68 68 67 67 67 61 55 52 48 47 42 38 35 33 31 28 23 22 23 22 21
60 64 67 68 70 69 68 69 69 69 70 70 71 72 73 73 71 71 71 70 70 71 70 66 68 69 65 58 52 50 49 45 47 36 32 32 29 27 23 24 25 21 16
60 62 64 65 70 73 71 70 68 71 74 74 75 76 76 74 74 71 70 70 70 70 70 70 66 63 57 55 51 46 41 42 45 38 34 32 29 26 22 24 22 17 17
67 69 70 72 73 74 69 71 72 71 73 75 76 78 78 77 73 73 72 71 71 71 70 70 68 64 59 54 47 44 42 43 48 38 35 33 28 22 19 22 20 16 18
65 69 73 74 75 78 77 76 72 72 73 75 75 77 78 78 72 73 71 70 71 70 70 71 71 68 59 54 51 45 45 49 45 36 35 34 25 16 11 19 17 15 14
Wind_Direction_850mb
219 223 225 236 244 248 249 247 252 259 267 271 277 282 284 286 287 289 288 292 293 291 293 296 297 296 296 297 296 296 295 295 295 298 296 288 292 290 293 295 300 302 305
226 228 228 233 241 246 252 255 256 262 268 272 276 281 283 284 288 290 290 294 292 290 292 292 289 287 286 286 287 288 288 286 287 288 285 290 286 288 293 289 292 296 300
225 233 233 235 239 244 247 250 248 248 257 266 272 276 279 281 284 287 288 286 284 285 285 283 280 277 275 275 276 277 278 278 280 282 283 285 284 289 296 297 294 296 299
229 233 236 240 245 246 249 248 251 254 257 260 267 271 275 284 290 286 283 283 285 286 282 277 275 275 271 265 267 270 273 274 273 277 281 280 282 292 296 300 300 300 302
235 237 241 244 245 245 247 249 250 251 248 262 270 274 280 284 288 289 285 284 287 284 279 274 272 273 265 257 257 261 264 269 272 271 272 277 286 294 293 292 298 301 304
238 238 241 243 245 241 242 247 255 253 263 268 272 272 277 280 284 281 273 270 272 272 268 263 263 263 259 253 248 257 267 269 272 276 281 283 287 291 291 290 291 294 300
242 239 240 242 245 240 247 253 262 257 252 256 267 273 281 284 290 290 282 265 265 265 251 250 255 255 259 257 261 266 264 264 270 276 282 290 295 300 299 297 299 300 300
247 247 245 244 244 241 243 250 252 256 255 249 259 272 281 293 276 288 281 268 268 238 259 246 250 260 260 266 271 269 268 268 274 277 279 281 284 286 290 294 299 300 301
249 249 252 249 246 245 245 247 246 253 255 251 252 245 255 252 281 238 257 268 246 256 251 253 255 257 262 270 268 266 263 267 269 269 276 287 292 290 291 296 299 301 302
252 252 250 251 249 249 247 245 245 255 253 251 252 246 247 251 264 251 256 261 235 239 242 261 256 256 273 269 259 263 261 258 256 257 277 285 290 291 296 296 297 299 302
255 252 249 247 248 248 253 253 242 245 253 253 250 253 253 253 250 253 255 242 244 249 248 248 253 263 270 265 255 269 259 242 249 268 284 284 281 286 291 293 297 300 303
260 257 252 248 247 246 247 249 249 243 247 248 254 247 252 256 253 247 245 251 250 250 250 263 265 254 265 243 274 250 244 252 272 276 285 285 287 289 290 294 297 298 300
257 261 260 255 254 248 248 248 248 247 246 245 249 254 250 254 255 255 257 259 252 255 255 257 262 255 257 245 255 244 247 261 274 284 285 284 285 286 287 290 291 294 297
256 261 262 262 258 256 252 247 248 250 249 248 246 251 252 251 251 248 250 254 250 252 256 257 257 250 247 232 258 247 254 266 275 274 276 277 279 282 285 288 292 298 301
252 257 260 263 263 253 246 244 247 252 252 252 252 248 249 249 248 248 252 249 250 247 252 254 252 250 246 239 235 250 259 263 264 268 270 275 280 283 287 292 295 299 304
248 251 252 252 265 264 255 249 252 258 258 256 253 248 246 251 251 255 255 250 251 254 253 258 248 246 243 243 238 252 254 258 266 268 270 274 278 282 286 292 295 299 303
258 255 253 255 256 257 259 258 258 256 252 254 254 252 251 252 253 256 251 254 254 249 248 251 243 237 236 233 237 246 246 252 257 258 263 268 273 278 283 288 291 294 298
262 260 256 254 254 254 255 256 258 259 260 260 256 256 250 256 250 255 257 256 257 245 243 245 237 227 233 235 235 236 242 244 247 254 261 264 267 270 275 278 283 290 294
286 279 274 271 269 266 264 264 264 264 263 260 263 252 254 255 256 255 259 253 253 246 251 245 240 231 236 231 232 232 234 240 246 251 255 259 262 265 268 273 281 288 291
293 287 281 277 275 272 270 267 266 265 262 263 256 255 257 260 259 258 256 258 254 253 247 242 237 240 234 232 228 229 231 236 241 247 249 250 255 263 266 270 277 282 284
296 292 287 282 277 274 272 269 267 268 264 260 259 258 259 257 259 257 256 256 255 249 241 236 233 232 231 230 228 229 230 233 237 241 242 243 250 256 254 263 271 278 277
292 292 292 290 287 282 277 274 272 271 269 266 266 266 264 262 260 259 259 256 251 246 241 237 234 235 234 229 228 226 227 227 234 239 242 242 248 253 250 261 268 269 266
295 293 291 289 287 286 286 284 280 275 271 270 269 267 266 264 263 260 257 253 248 244 239 238 239 236 234 231 229 226 227 231 245 242 237 241 245 245 244 255 260 256 261
296 293 291 288 284 283 283 282 282 280 277 274 271 269 267 264 261 258 254 250 244 240 237 237 235 235 234 234 230 230 231 236 241 239 241 243 241 236 247 258 258 230 279
301 301 298 294 290 285 280 281 281 280 278 275 273 270 268 265 260 256 251 246 242 238 236 235 232 232 230 229 228 229 233 240 242 239 240 244 243 235 243 251 226 258 282
305 303 302 302 300 296 291 282 279 280 279 276 273 270 267 264 259 255 250 246 242 238 235 236 234 232 230 226 224 227 238 239 239 241 239 240 238 244 226 229 228 260 276